Location: Usti nad Labem
(50.6670°N, 14.0330°E)
Time: 10:03:01
(UTC+01:00)

ISS - Visible Passes

Search period start: 25 February 2017 00:00
Search period end: 07 March 2017 00:00
Orbit: 399 x 408 km, 51.6° (Epoch: 25 February)

Date Brightness Start Highest point End Pass type
(mag) Time Alt. Az. Time Alt. Az. Time Alt. Az.
03 Mar -0.7 05:47:44 10° S 05:50:04 18° SE 05:52:24 10° E visible
04 Mar -0.4 04:56:38 10° SSE 04:57:43 11° SE 04:58:47 10° ESE visible
05 Mar -1.7 05:38:05 10° SSW 05:41:03 31° SSE 05:44:02 10° E visible
06 Mar -1.2 04:47:10 16° S 04:48:35 21° SE 04:51:08 10° E visible
